Weather Roundup
Issued by NWS Springfield, MO

Home | Current Version | Previous Version | Text Only | Print | Product List | Glossary On
Versions: 1 2 3 4 5 6 7 8 9 10 11 12 13 14 15 16 17 18 19 20 21 22 23 24 25 26 27 28 29 30 31 32 33 34 35 36 37 38 39 40 41 42 43 44 45 46 47 48 49 50
000
NZUS99 KSGF 311007
HRRSGF

HOURLY WEATHER
NATIONAL WEATHER SERVICE SPRINGFIELD MO
500 AM CDT SUN JUL 31 2016

......SGF CWA......

CITY           SKY/WX    TMP DP  RH WIND       PRES   REMARKS
SPRINGFIELD    MOCLDY    73  69  87 SE6       29.99R
JOPLIN         MOCLDY    73  70  90 S7        29.96S
WEST PLAINS    CLEAR     70  66  87 CALM      30.03R
ROLLA          CLEAR     66  64  93 CALM      29.99S
OSAGE BEACH    PTCLDY    66  65  96 CALM      30.00R
BRANSON        CLOUDY    72  68  88 CALM      30.01F

......SURROUNDING SGF CWA......

CITY           SKY/WX    TMP DP  RH WIND       PRES   REMARKS
CHANUTE        CLEAR     73  70  90 MISG      29.93F
PARSONS        PTCLDY    74  70  87 SE5       29.93F
COFFEYVILLE    CLEAR     73  71  93 SE6       29.92F
EMPORIA        CLOUDY    73  70  90 NE5       29.93R
GROVE OK       CLEAR     70  70 100 CALM      29.97R
ROGERS AR      MOCLDY    71  68  90 SE6       30.00S
SILOAM SPRINGS CLEAR     70  61  73 SE6       30.00S
HARRISON AR    PTCLDY    70  69  97 S6        30.02S
NEAR YELLVILLE CLOUDY    70  66  88 CALM      29.98S

......KANSAS AND MISSOURI......

CITY           SKY/WX    TMP DP  RH WIND       PRES   REMARKS
KANSAS CTY INT PTCLDY    71  65  81 SE7       29.95F
DOWNTOWN KC    CLEAR     74  66  76 E5        29.94F
COLUMBIA       CLEAR     68  65  90 E3        30.00R
SEDALIA        CLEAR     68  65  90 SE5       29.99S
ST JOSEPH      MOCLDY    71  66  84 SE5       29.95S
ST LOUIS       PTCLDY    72  67  84 CALM      30.00R
SPIRIT OF STL  CLEAR     68  67  96 CALM      29.99R
KIRKSVILLE     FOG       61  60  97 CALM      30.01S VSB 1/2
WICHITA        PTCLDY    73  70  90 S9        29.88S
TOPEKA         CLOUDY    71  68  90 E5        29.92S
OLATHE         CLEAR     70  67  90 SE7       29.96S

......TENNESSEE......

CITY           SKY/WX    TMP DP  RH WIND       PRES   REMARKS
MEMPHIS        CLOUDY    75  69  81 CALM      29.99S
NASHVILLE      PTCLDY    74  71  91 CALM      30.02S

......ARKANSAS.......

CITY           SKY/WX    TMP DP  RH WIND       PRES   REMARKS
FAYETTEVILLE   MOCLDY    69  69 100 CALM      30.00R
FT SMITH       PTCLDY    73  69  87 E5        29.97S
LITTLE ROCK    MOCLDY    73  69  87 SW3       29.99R

......OKLAHOMA.......

CITY           SKY/WX    TMP DP  RH WIND       PRES   REMARKS
TULSA          PTCLDY    76  71  85 SE8       29.91S
PONCA CITY     CLEAR     77  69  76 S8        29.88F
MCALESTER      PTCLDY    77  69  76 S6        29.97R
OKLAHOMA CITY  CLEAR     74  69  85 S7        29.93R

......IOWA............

CITY           SKY/WX    TMP DP  RH WIND       PRES   REMARKS
DES MOINES     PTCLDY    70  65  84 SE5       29.97F
QUAD CITIES    PTCLDY    66  63  90 E6        30.01R

......ILLINOIS........

CITY           SKY/WX    TMP DP  RH WIND       PRES   REMARKS
QUINCY         CLEAR     67  66  97 CALM      30.01R
CHICAGO        CLEAR     65  63  93 N6        30.00R



USA.gov is the U.S. government's official web portal to all federal, state and local government web resources and services.